DW5759 Weather Reports


Display with metric or nautical units.
time (UTC)temp
F
wind
direction
speed
MPH
gust
MPH
rain 1hr
in
rain 24hr
in
rain mn
in
humidity
%
barometer
mb
20260903231515 77 295 0.0 0.0 0.00 0.35 0.31 89 1011.1
20260903230027 77 285 0.0 0.0 0.00 0.35 0.31 88 1011.5
20260903224540 78 285 0.0 0.0 0.00 0.35 0.31 87 1011.4
20260903223005 78 284 0.0 1.0 0.00 0.35 0.31 87 1011.5
20260903221524 79 274 0.0 0.0 0.00 0.35 0.31 87 1011.2
20260903220019 79 257 0.0 0.0 0.00 0.35 0.31 85 1011.1
20260903214534 80 257 0.0 0.0 0.00 0.35 0.31 84 1011.3
20260903213016 80 252 0.0 0.0 0.00 0.35 0.31 83 1011.3
20260903211511 81 265 0.0 0.0 0.00 0.35 0.31 82 1011.2
20260903210014 81 266 0.0 0.0 0.00 0.35 0.31 80 1011.2
20260903204524 82 255 0.0 0.0 0.00 0.35 0.31 79 1011.1
20260903203009 82 246 0.0 0.0 0.00 0.35 0.31 80 1011.3
20260903201509 82 261 0.0 0.0 0.00 0.35 0.31 77 1011.3
20260903200016 83 205 0.0 0.0 0.00 0.35 0.31 75 1011.4
20260903194516 84 225 0.0 0.0 0.00 0.35 0.31 74 1011.5
20260903193027 83 152 0.0 0.0 0.00 0.35 0.31 75 1011.5
20260903191516 81 234 0.0 0.0 0.00 0.35 0.31 78 1011.9
20260903190010 80 162 0.0 0.0 0.00 0.35 0.31 82 1011.9
20260903184521 80 148 0.0 0.0 0.00 0.35 0.31 81 1012.0
20260903183020 81 171 0.0 0.0 0.00 0.35 0.31 78 1012.2
20260903181540 81 1 0.0 2.0 0.00 0.35 0.31 78 1012.3
20260903180007 80 282 0.0 0.0 0.00 0.36 0.31 80 1012.4
20260903174512 80 282 0.0 0.0 0.00 0.39 0.31 80 1012.4
20260903173016 80 188 0.0 0.0 0.00 0.43 0.31 80 1012.4
20260903171533 79 221 0.0 0.0 0.00 0.48 0.31 82 1012.8
20260903170005 78 217 0.0 0.0 0.00 0.48 0.31 84 1012.7
20260903164509 78 188 0.0 1.0 0.00 0.48 0.31 82 1012.9
20260903163018 78 25 0.0 0.0 0.01 0.48 0.31 84 1013.0
20260903161520 79 175 0.0 2.0 0.01 0.48 0.31 84 1013.2
20260903160027 78 310 0.0 2.0 0.01 0.48 0.31 83 1013.2
20260903154508 76 262 0.0 0.0 0.01 0.48 0.31 86 1013.1
20260903153010 75 224 0.0 5.0 0.00 0.47 0.30 89 1013.4
20260903151514 74 168 0.0 1.0 0.00 0.47 0.30 92 1013.5
20260903150032 72 241 0.0 1.0 0.00 0.47 0.30 94 1013.6
20260903144530 71 248 0.0 0.0 0.00 0.47 0.30 95 1013.6
20260903143009 70 329 0.0 0.0 0.00 0.47 0.30 96 1013.5
20260903141518 69 18 0.0 0.0 0.00 0.47 0.30 97 1013.6
20260903140022 69 241 0.0 0.0 0.00 0.47 0.30 96 1013.3
20260903134533 68 238 0.0 0.0 0.00 0.47 0.30 96 1013.4
20260903133029 68 245 0.0 0.0 0.00 0.47 0.30 97 1013.5
20260903131511 68 133 0.0 0.0 0.00 0.47 0.30 96 1013.4
20260903130014 67 133 0.0 0.0 0.01 0.47 0.30 96 1013.3
20260903124525 67 134 0.0 0.0 0.01 0.47 0.30 96 1013.6
20260903123011 66 174 0.0 0.0 0.01 0.47 0.30 96 1013.9
20260903121510 66 151 0.0 0.0 0.01 0.47 0.30 96 1014.1
20260903120017 65 151 0.0 0.0 0.01 0.46 0.29 96 1014.0
20260903114504 65 151 0.0 0.0 0.01 0.46 0.29 96 1013.9
20260903113005 65 151 0.0 0.0 0.02 0.46 0.29 96 1013.9
20260903111506 65 157 0.0 0.0 0.02 0.46 0.29 96 1014.0
20260903110011 65 158 0.0 0.0 0.01 0.45 0.28 96 1014.2
20260903104531 65 157 0.0 0.0 0.01 0.45 0.28 96 1014.4
20260903103003 65 65 0.0 0.0 0.01 0.44 0.27 96 1014.0
20260903101504 65 268 0.0 0.0 0.02 0.44 0.27 96 1014.1
20260903100018 65 269 0.0 0.0 0.02 0.44 0.27 96 1014.2
20260903094515 65 262 0.0 0.0 0.03 0.44 0.27 96 1014.1
20260903093036 65 262 0.0 0.0 0.03 0.43 0.26 96 1013.8
20260903091504 64 109 0.0 0.0 0.02 0.42 0.25 96 1013.8
20260903090010 64 88 0.0 0.0 0.03 0.42 0.25 96 1014.2
20260903084511 64 88 0.0 0.0 0.03 0.41 0.24 96 1014.1
20260903083017 64 339 0.0 0.0 0.02 0.40 0.23 96 1014.2
20260903081533 64 260 0.0 0.0 0.02 0.40 0.23 96 1014.0
20260903080004 64 103 0.0 0.0 0.02 0.40 0.22 96 1014.4
20260903074506 64 22 0.0 0.0 0.02 0.39 0.21 96 1014.0
20260903073012 64 117 0.0 0.0 0.02 0.39 0.21 96 1014.1
20260903071523 64 129 0.0 0.0 0.03 0.39 0.21 96 1013.9
20260903070050 64 217 0.0 3.0 0.03 0.38 0.20 96 1014.3
20260903064507 64 340 0.0 0.0 0.04 0.37 0.19 96 1014.8
20260903063012 64 255 0.0 0.0 0.05 0.37 0.19 96 1014.4
20260903061514 64 352 0.0 0.0 0.05 0.37 0.18 95 1014.7
20260903060021 64 352 0.0 0.0 0.06 0.36 0.17 95 1015.2
20260903054543 64 352 0.0 0.0 0.06 0.34 0.15 95 1015.9
20260903053007 64 349 0.0 0.0 0.07 0.33 0.14 95 1016.4
20260903051512 64 281 0.0 0.0 0.09 0.32 0.13 95 1016.5
20260903050027 64 280 0.0 0.0 0.11 0.30 0.11 95 1016.8
20260903044534 64 68 0.0 0.0 0.11 0.28 0.09 95 1016.5
20260903043028 64 68 0.0 0.0 0.10 0.26 0.07 95 1017.5
20260903041517 64 70 0.0 0.0 0.07 0.23 0.04 95 1017.5
20260903040013 64 121 0.0 0.0 0.03 0.19 0.00 95 1018.0
20260903034525 64 290 0.0 0.0 0.01 0.17 0.17 94 1018.5
20260903033025 64 292 0.0 0.0 0.00 0.16 0.16 95 1018.1
20260903031528 64 292 0.0 0.0 0.00 0.16 0.16 94 1017.6
20260903030013 64 292 0.0 0.0 0.00 0.16 0.16 95 1017.9
20260903024520 64 291 0.0 0.0 0.00 0.16 0.16 95 1017.9
20260903023033 64 291 0.0 0.0 0.00 0.16 0.16 95 1018.2
20260903021530 64 278 0.0 0.0 0.00 0.16 0.16 95 1018.4
20260903020008 64 278 0.0 0.0 0.00 0.16 0.16 95 1019.1
20260903014509 64 267 0.0 0.0 0.00 0.16 0.16 95 1019.2
20260903013016 64 267 0.0 0.0 0.00 0.16 0.16 95 1019.0
20260903011504 64 265 0.0 0.0 0.00 0.16 0.16 95 1018.8
20260903010003 64 248 0.0 0.0 0.00 0.16 0.16 95 1018.9
20260903004539 64 248 0.0 0.0 0.00 0.16 0.16 95 1018.9
20260903003011 64 248 0.0 0.0 0.00 0.16 0.16 95 1018.5
20260903001505 64 248 0.0 0.0 0.01 0.16 0.16 94 1018.2
20260903000042 64 248 0.0 0.0 0.01 0.16 0.16 94 1018.7
20260902234539 64 248 0.0 0.0 0.01 0.16 0.16 94 1018.6
20260902233010 64 248 0.0 0.0 0.01 0.16 0.16 94 1018.9